When you browse on this site, cookies collect data to enhance your experience and personalize the content and advertising you see.
Visit our Privacy Policy to learn more. By continuing to use the site, you agree to this use of cookies and data.
  • en Suisse
  • Liste des pays
  • À 7 jours
  • Température de l'eau
  • Carte météo
  • Widgets météo
  • user-avatar
    Se connecter

    Météo par heure à Tours

    Ce jour, 21 Février, Vendredi

    Heure Température Précipitation Vent Pression Humidité
    00:00 +4°C° 0 mm 2 m/s 766 mmHg 91%
    01:00 +4°C° 0 mm 2 m/s 767 mmHg 91%
    02:00 +3°C° 0 mm 2 m/s 767 mmHg 91%
    03:00 +4°C° 0 mm 1 m/s 767 mmHg 91%
    04:00 +4°C° 0 mm 1 m/s 768 mmHg 90%
    05:00 +4°C° 0 mm 1 m/s 768 mmHg 89%
    06:00 +3°C° 0 mm 1 m/s 768 mmHg 88%
    13:00 +10°C° 0 mm 3 m/s 768 mmHg 56%
    14:00 +10°C° 0 mm 3 m/s 768 mmHg 56%
    15:00 +10°C° 0 mm 3 m/s 767 mmHg 56%
    16:00 +9°C° 0 mm 2 m/s 767 mmHg 61%
    17:00 +8°C° 0 mm 2 m/s 767 mmHg 67%
    18:00 +7°C° 0 mm 2 m/s 767 mmHg 72%
    19:00 +6°C° 0 mm 2 m/s 767 mmHg 75%
    20:00 +6°C° 0 mm 2 m/s 768 mmHg 78%
    21:00 +5°C° 0 mm 2 m/s 768 mmHg 82%
    22:00 +5°C° 0 mm 2 m/s 768 mmHg 84%
    23:00 +5°C° 0 mm 2 m/s 767 mmHg 87%

    Demain, 22 Février, Samedi

    Heure Température Précipitation Vent Pression Humidité
    00:00 +4°C° 0 mm 2 m/s 767 mmHg 89%
    01:00 +4°C° 0 mm 2 m/s 767 mmHg 89%
    02:00 +4°C° 0 mm 2 m/s 767 mmHg 90%
    03:00 +3°C° 0 mm 2 m/s 766 mmHg 90%
    04:00 +2°C° 0 mm 3 m/s 767 mmHg 89%
    05:00 +2°C° 0 mm 3 m/s 767 mmHg 89%
    06:00 +2°C° 0 mm 3 m/s 767 mmHg 88%
    07:00 +3°C° 0 mm 4 m/s 767 mmHg 85%
    08:00 +4°C° 0 mm 4 m/s 767 mmHg 82%
    09:00 +6°C° 0 mm 5 m/s 767 mmHg 79%
    10:00 +7°C° 0 mm 5 m/s 768 mmHg 76%
    11:00 +9°C° 0 mm 5 m/s 768 mmHg 74%
    12:00 +11°C° 0 mm 6 m/s 768 mmHg 72%
    13:00 +11°C° 0 mm 6 m/s 767 mmHg 72%
    14:00 +13°C° 0 mm 6 m/s 767 mmHg 72%
    15:00 +14°C° 0 mm 6 m/s 767 mmHg 72%
    16:00 +13°C° 0 mm 6 m/s 767 mmHg 77%
    17:00 +12°C° 0 mm 5 m/s 768 mmHg 82%
    18:00 +10°C° 0 mm 4 m/s 768 mmHg 88%
    19:00 +10°C° 0 mm 4 m/s 768 mmHg 88%
    20:00 +10°C° 0 mm 4 m/s 769 mmHg 89%
    21:00 +10°C° 0 mm 4 m/s 769 mmHg 89%
    22:00 +10°C° 0 mm 4 m/s 769 mmHg 90%
    23:00 +8°C° 0 mm 4 m/s 769 mmHg 92%

    Après-demain, 23 Février, Dimanche

    Heure Température Précipitation Vent Pression Humidité
    00:00 +8°C° 0 mm 4 m/s 769 mmHg 93%
    01:00 +8°C° 0 mm 4 m/s 769 mmHg 94%
    02:00 +8°C° 0 mm 4 m/s 768 mmHg 95%
    03:00 +7°C° 0 mm 4 m/s 768 mmHg 96%
    04:00 +8°C° 0 mm 5 m/s 768 mmHg 95%
    05:00 +8°C° 0 mm 5 m/s 768 mmHg 94%
    06:00 +9°C° 0 mm 5 m/s 767 mmHg 93%
    07:00 +9°C° 0 mm 6 m/s 767 mmHg 91%
    08:00 +9°C° 0 mm 6 m/s 767 mmHg 90%
    09:00 +10°C° 0 mm 7 m/s 767 mmHg 88%
    10:00 +10°C° 0 mm 7 m/s 767 mmHg 85%
    11:00 +11°C° 0 mm 7 m/s 767 mmHg 83%
    12:00 +12°C° 0 mm 7 m/s 767 mmHg 80%
    13:00 +14°C° 0 mm 7 m/s 766 mmHg 78%
    14:00 +14°C° 0 mm 7 m/s 766 mmHg 76%
    15:00 +15°C° 0 mm 7 m/s 766 mmHg 74%
    16:00 +14°C° 0 mm 6 m/s 766 mmHg 78%
    17:00 +13°C° 0 mm 5 m/s 766 mmHg 82%
    18:00 +12°C° 0 mm 4 m/s 766 mmHg 87%
    19:00 +11°C° 0 mm 4 m/s 767 mmHg 88%
    20:00 +11°C° 0 mm 4 m/s 767 mmHg 89%
    21:00 +11°C° 0 mm 4 m/s 767 mmHg 90%
    22:00 +11°C° 0 mm 4 m/s 767 mmHg 91%
    23:00 +10°C° 0 mm 4 m/s 767 mmHg 92%

    24 Février, Lundi

    Heure Température Précipitation Vent Pression Humidité
    00:00 +10°C° 0 mm 4 m/s 767 mmHg 93%
    01:00 +10°C° 0 mm 3 m/s 767 mmHg 94%
    02:00 +9°C° 0 mm 3 m/s 766 mmHg 95%
    03:00 +9°C° 0 mm 3 m/s 766 mmHg 96%
    04:00 +9°C° 0 mm 3 m/s 766 mmHg 96%
    05:00 +8°C° 0 mm 2 m/s 765 mmHg 97%
    06:00 +8°C° 0 mm 2 m/s 765 mmHg 97%
    07:00 +9°C° 0 mm 3 m/s 765 mmHg 95%
    08:00 +10°C° 0 mm 3 m/s 765 mmHg 92%
    09:00 +10°C° 0 mm 3 m/s 765 mmHg 90%
    10:00 +11°C° 0 mm 3 m/s 764 mmHg 86%
    11:00 +12°C° 0 mm 3 m/s 764 mmHg 83%
    12:00 +12°C° 0 mm 3 m/s 763 mmHg 79%
    13:00 +13°C° 0 mm 3 m/s 762 mmHg 76%
    14:00 +14°C° 0 mm 4 m/s 762 mmHg 73%
    15:00 +15°C° 0 mm 4 m/s 761 mmHg 70%
    16:00 +14°C° 0 mm 4 m/s 760 mmHg 75%
    17:00 +13°C° 0 mm 3 m/s 760 mmHg 80%
    18:00 +11°C° 0 mm 3 m/s 760 mmHg 85%
    19:00 +10°C° 0 mm 3 m/s 760 mmHg 85%
    20:00 +8°C° 0 mm 4 m/s 760 mmHg 86%
    21:00 +7°C° 0 mm 4 m/s 760 mmHg 87%
    22:00 +7°C° 0 mm 4 m/s 759 mmHg 89%
    23:00 +6°C° 0 mm 4 m/s 759 mmHg 92%

    25 Février, Mardi

    Heure Température Précipitation Vent Pression Humidité
    00:00 +6°C° 0 mm 4 m/s 759 mmHg 94%
    01:00 +6°C° 0 mm 4 m/s 759 mmHg 95%
    02:00 +6°C° 0 mm 4 m/s 758 mmHg 96%
    03:00 +6°C° 0 mm 4 m/s 758 mmHg 96%
    04:00 +6°C° 0.1 mm 4 m/s 758 mmHg 96%
    05:00 +7°C° 0.1 mm 5 m/s 758 mmHg 95%
    06:00 +7°C° 0.1 mm 5 m/s 757 mmHg 94%
    07:00 +8°C° 1.3 mm 5 m/s 757 mmHg 93%
    08:00 +8°C° 1.3 mm 5 m/s 757 mmHg 92%
    09:00 +8°C° 1.3 mm 5 m/s 757 mmHg 90%
    10:00 +8°C° 0.1 mm 5 m/s 757 mmHg 84%
    11:00 +8°C° 0.1 mm 6 m/s 757 mmHg 77%
    12:00 +8°C° 0.1 mm 7 m/s 758 mmHg 70%
    13:00 +7°C° 0 mm 6 m/s 757 mmHg 70%
    14:00 +7°C° 0 mm 6 m/s 757 mmHg 70%
    15:00 +7°C° 0 mm 6 m/s 757 mmHg 70%
    16:00 +7°C° 0 mm 6 m/s 757 mmHg 72%
    17:00 +7°C° 0 mm 6 m/s 757 mmHg 75%
    18:00 +5°C° 0 mm 7 m/s 757 mmHg 77%
    19:00 +5°C° 0.1 mm 6 m/s 757 mmHg 79%
    20:00 +5°C° 0.1 mm 6 m/s 757 mmHg 80%
    21:00 +5°C° 0.1 mm 6 m/s 758 mmHg 82%
    22:00 +4°C° 0 mm 6 m/s 758 mmHg 82%
    23:00 +4°C° 0 mm 6 m/s 758 mmHg 82%

    26 Février, Mercredi

    Heure Température Précipitation Vent Pression Humidité
    00:00 +4°C° 0 mm 6 m/s 758 mmHg 82%
    01:00 +4°C° 0 mm 6 m/s 757 mmHg 82%
    02:00 +4°C° 0 mm 6 m/s 757 mmHg 83%
    03:00 +4°C° 0 mm 6 m/s 757 mmHg 83%
    04:00 +4°C° 0 mm 6 m/s 757 mmHg 83%
    05:00 +4°C° 0 mm 6 m/s 756 mmHg 83%
    06:00 +4°C° 0 mm 6 m/s 756 mmHg 83%
    07:00 +5°C° 0.1 mm 7 m/s 756 mmHg 81%
    08:00 +5°C° 0.1 mm 7 m/s 756 mmHg 79%
    09:00 +6°C° 0.1 mm 8 m/s 755 mmHg 77%
    10:00 +6°C° 0.2 mm 8 m/s 755 mmHg 75%
    11:00 +7°C° 0.2 mm 8 m/s 755 mmHg 73%
    12:00 +7°C° 0.2 mm 9 m/s 755 mmHg 71%
    13:00 +7°C° 0.3 mm 9 m/s 754 mmHg 69%
    14:00 +7°C° 0.3 mm 9 m/s 754 mmHg 68%
    15:00 +7°C° 0.3 mm 10 m/s 754 mmHg 66%
    16:00 +6°C° 0.2 mm 8 m/s 754 mmHg 70%
    17:00 +5°C° 0.2 mm 6 m/s 755 mmHg 75%
    18:00 +5°C° 0.2 mm 5 m/s 755 mmHg 79%
    19:00 +3°C° 0 mm 5 m/s 756 mmHg 81%
    20:00 +3°C° 0 mm 4 m/s 757 mmHg 82%
    21:00 +3°C° 0 mm 4 m/s 758 mmHg 83%
    22:00 +1°C° 0 mm 4 m/s 758 mmHg 84%
    23:00 +1°C° 0 mm 4 m/s 758 mmHg 86%
    Voir plus